Other Surface Observations
Issued by NWS Charleston, SC

Home | Current Version | Previous Version | Text Only | Print | Product List | Glossary On
Versions: 1 2 3 4 5 6 7 8 9 10 11 12 13 14 15 16 17 18 19 20 21 22 23 24 25 26 27 28 29 30 31 32 33 34 35 36 37 38 39 40 41 42 43 44 45 46 47 48 49 50
973
SXUS52 KCHS 200012
OSOCHS

Marine Observations
National Weather Service Charleston SC
800 PM EDT THU APR 19 2018

...Downtown Charleston and Harbor...

CITY           SKY/WX    TMP DP  RH WIND       PRES   REMARKS
Waterfront Prk   N/A     81  49  32 W7G14     29.78R

...Lake Moultrie...

CITY           SKY/WX    TMP DP  RH WIND       PRES   REMARKS
Pinopolis        N/A     72  55  56 NW9       29.88R

...Lake and Supplemental Coastal Observations...

STATION/POSITION TIME  TEMP    WIND        PRES    WAVE   SWELL
                       AIR SEA DIR/SP/G            HT/PER HT/PER/DIR
                 (UTC) (F)     (DEG/KT/KT) (MB)    (FT/S) (FT/S/D)
Fort Pulaski     2348      67  290/  9/ 11 1014.9R
Sapelo Island    2300   82     280/ 13     1015.0
Winyah Bay       2245   80     280/ 11     1013.0
Lake Murray      2320   69     350/  6/ 12 1015.6R
ACE Basin NERRS  2245   81     350/  5       N/A


...C-MAN and Buoy Observations...

STATION/POSITION TIME  TEMP    WIND        PRES    WAVE   SWELL
                       AIR SEA DIR/SP/G            HT/PER HT/PER/DIR
                 (UTC) (F)     (DEG/KT/KT) (MB)    (FT/S) (FT/S/D)
Buoy 41004       0000   70 68  220/ 16/ 19 1014.0
Buoy 41008       2350   71 66  290/  6/  8 1014.6R   3/ 5   2/170/ 5
Folly Beach CMAN 0000   76     280/  6/  9 1014.8R
Pritchards Islan NOT AVBL
Capers NS Buoy   2308   66 64  240/ 12/ 16 1013.4R
Fripp NS Buoy    2308   72 65  280/  8/ 12 1013.7R
5E St. Marys GA  0000      67                N/A     2/ 9


STATION/POSITION TIME  TEMP    WIND        PRES    WAVE   SWELL
                       AIR SEA DIR/SP/G            HT/PER HT/PER/DIR
                 (UTC) (F)     (DEG/KT/KT) (MB)    (FT/S) (FT/S/D)
Frying Pan Buoy  0000   68 65  230/ 17/ 23 1013.2
Buoy 41025       0000   60 67   20/ 25/ 33 1013.9
Cape Lookout NC  0000          350/ 17/ 20 1014.5R
Buoy 41002       0000   73 71  230/ 17/ 21 1014.9
Buoy 41010       2350   74 74  190/  4/  6 1017.9F   3/ 5   3/250/ 5
St Augustine FL  0000   78 69  240/  6/  8 1017.1R

$$




USA.gov is the U.S. government's official web portal to all federal, state and local government web resources and services.